Location: Starry Hill Observatory
(46.8582°N, 122.3590°W)
Time: 01:53:47
(UTC-07:00)

ISS - Visible Passes

Search period start: 03 September 2015 00:00
Search period end: 13 September 2015 00:00
Orbit: 400 x 403 km, 51.6° (Epoch: 01 September)

Date Brightness Start Highest point End Pass type
(mag) Time Alt. Az. Time Alt. Az. Time Alt. Az.
09 Sep -0.5 05:20:36 10° SSE 05:21:47 12° SE 05:23:04 10° ESE visible
10 Sep -2.2 06:01:25 10° SW 06:04:29 39° SE 06:07:35 10° ENE visible
11 Sep -1.4 05:09:45 16° S 05:11:21 23° SE 05:14:02 10° E visible
12 Sep -0.6 04:18:48 13° SE 04:18:48 13° SE 04:20:00 10° ESE visible
12 Sep -3.3 05:51:24 13° WSW 05:54:14 77° SSE 05:57:31 10° ENE visible
